DW8231 Weather Reports


time (UTC)temp
C
wind
direction
speed
KPH
gust
KPH
rain 1hr
cm
rain 24hr
cm
rain mn
cm
humidity
%
barometer
mb
20260906161523 22 125 0.0 0.0 0.00 0.00 0.00 82 1017.7
20260906161019 22 102 0.0 0.0 0.00 0.00 0.00 84 1017.6
20260906160518 22 160 0.0 0.0 0.00 0.00 0.00 84 1017.7
20260906160017 22 126 0.0 0.0 0.00 0.00 0.00 84 1017.7
20260906155517 22 160 0.0 0.0 0.00 0.00 0.00 86 1017.8
20260906155018 22 175 0.0 0.0 0.00 0.00 0.00 86 1017.8
20260906154530 22 138 0.0 0.0 0.00 0.00 0.00 86 1017.9
20260906154018 21 150 0.0 0.0 0.00 0.00 0.00 87 1018.0
20260906153517 21 92 0.0 0.0 0.00 0.00 0.00 87 1018.0
20260906153019 21 190 0.0 0.0 0.00 0.00 0.00 88 1018.1
20260906152519 21 136 0.0 0.0 0.00 0.00 0.00 88 1018.2
20260906152021 21 119 0.0 0.0 0.00 0.00 0.00 88 1018.1
20260906151516 21 141 0.0 0.0 0.00 0.00 0.00 89 1018.1
20260906151016 21 198 0.0 0.0 0.00 0.00 0.00 90 1018.0
20260906150515 21 115 0.0 0.0 0.00 0.00 0.00 90 1018.0
20260906150015 21 117 0.0 0.0 0.00 0.00 0.00 91 1017.8
20260906145515 21 115 0.0 0.0 0.00 0.00 0.00 91 1017.8
20260906145014 21 154 0.0 0.0 0.00 0.00 0.00 91 1017.8
20260906144518 20 119 0.0 0.0 0.00 0.00 0.00 92 1017.8
20260906144013 20 116 0.0 0.0 0.00 0.00 0.00 92 1017.8
20260906143514 20 126 0.0 0.0 0.00 0.00 0.00 93 1017.9
20260906143014 20 207 0.0 0.0 0.00 0.00 0.00 93 1018.1
20260906142514 20 179 0.0 0.0 0.00 0.00 0.00 93 1018.0
20260906142014 20 128 0.0 0.0 0.00 0.00 0.00 93 1017.9
20260906141515 20 142 0.0 0.0 0.00 0.00 0.00 93 1017.9
20260906141016 20 129 0.0 0.0 0.00 0.00 0.00 94 1017.8
20260906140514 20 124 0.0 0.0 0.00 0.00 0.00 94 1017.8
20260906140030 20 136 0.0 0.0 0.00 0.00 0.00 93 1017.8
20260906135514 20 163 0.0 0.0 0.00 0.00 0.00 94 1017.8
20260906135017 20 107 0.0 0.0 0.00 0.00 0.00 94 1017.8
20260906134513 20 117 0.0 0.0 0.00 0.00 0.00 94 1017.7
20260906134013 20 164 0.0 0.0 0.00 0.00 0.00 94 1017.7
20260906133513 20 114 0.0 0.0 0.00 0.00 0.00 94 1017.6
20260906133022 20 132 0.0 0.0 0.00 0.00 0.00 94 1017.5
20260906132512 20 119 0.0 0.0 0.00 0.00 0.00 94 1017.5
20260906132013 19 147 0.0 0.0 0.00 0.00 0.00 94 1017.5
20260906131512 19 122 0.0 0.0 0.00 0.00 0.00 94 1017.5
20260906131011 19 144 0.0 0.0 0.00 0.00 0.00 94 1017.5
20260906130511 19 144 0.0 0.0 0.00 0.00 0.00 94 1017.5
20260906130020 19 127 0.0 0.0 0.00 0.00 0.00 94 1017.6
20260906125510 19 138 0.0 0.0 0.00 0.00 0.00 94 1017.5
20260906125014 19 121 0.0 0.0 0.00 0.00 0.00 94 1017.4
20260906124510 19 190 0.0 0.0 0.00 0.00 0.00 94 1017.3
20260906124011 19 124 0.0 0.0 0.00 0.00 0.00 94 1017.4
20260906123511 19 115 0.0 0.0 0.00 0.00 0.00 94 1017.4
20260906123018 19 137 0.0 0.0 0.00 0.00 0.00 94 1017.5
20260906122512 19 107 0.0 0.0 0.00 0.00 0.00 93 1017.4
20260906122009 19 106 0.0 0.0 0.00 0.00 0.00 93 1017.4
20260906121508 18 105 0.0 0.0 0.00 0.00 0.00 93 1017.3
20260906121007 18 106 0.0 0.0 0.00 0.00 0.00 93 1017.1
20260906120509 18 105 0.0 0.0 0.00 0.00 0.00 93 1017.1
20260906120009 18 105 0.0 0.0 0.00 0.00 0.00 93 1017.0
20260906115509 18 106 0.0 0.0 0.00 0.00 0.00 93 1016.9
20260906115008 18 109 0.0 0.0 0.00 0.00 0.00 93 1016.9
20260906114510 18 117 0.0 0.0 0.00 0.00 0.00 93 1016.9
20260906114008 19 117 0.0 0.0 0.00 0.00 0.00 93 1016.9
20260906113507 19 117 0.0 0.0 0.00 0.00 0.00 93 1016.9
20260906113011 19 117 0.0 0.0 0.00 0.00 0.00 93 1016.9
20260906112506 19 118 0.0 0.0 0.00 0.00 0.00 93 1017.0
20260906112005 19 118 0.0 0.0 0.00 0.00 0.00 93 1017.0
20260906111504 20 118 0.0 0.0 0.00 0.00 0.00 93 1017.0
20260906111003 20 118 0.0 0.0 0.00 0.00 0.00 93 1016.9
20260906110504 20 118 0.0 0.0 0.00 0.00 0.00 93 1016.9
20260906110003 20 118 0.0 0.0 0.00 0.00 0.00 93 1016.8
20260906105502 20 118 0.0 0.0 0.00 0.00 0.00 93 1016.8
20260906105001 20 118 0.0 0.0 0.00 0.00 0.00 93 1016.7
20260906104502 20 118 0.0 0.0 0.00 0.00 0.00 93 1016.6
20260906104100 20 118 0.0 0.0 0.00 0.00 0.00 93 1016.5
20260906103600 20 118 0.0 0.0 0.00 0.00 0.00 93 1016.5
20260906103102 20 118 0.0 0.0 0.00 0.00 0.00 93 1016.4
20260906102600 20 118 0.0 0.0 0.00 0.00 0.00 93 1016.5
20260906102101 20 118 0.0 0.0 0.00 0.00 0.00 93 1016.5
20260906101600 20 118 0.0 0.0 0.00 0.00 0.00 93 1016.4
20260906101100 20 118 0.0 0.0 0.00 0.00 0.00 93 1016.3
20260906100103 20 117 0.0 0.0 0.00 0.00 0.00 93 1016.1
20260906095559 20 117 0.0 0.0 0.00 0.00 0.00 93 1016.1
20260906095059 20 129 0.0 0.0 0.00 0.00 0.00 93 1016.0
20260906094603 20 115 0.0 0.0 0.00 0.00 0.00 93 1015.9
20260906094100 20 114 0.0 0.0 0.00 0.00 0.00 93 1015.9
20260906093559 20 117 0.0 0.0 0.00 0.00 0.00 93 1015.8
20260906093059 20 117 0.0 0.0 0.00 0.00 0.00 93 1015.7
20260906092601 20 119 0.0 0.0 0.00 0.00 0.00 93 1015.6
20260906092059 20 115 0.0 0.0 0.00 0.00 0.00 93 1015.6
20260906091558 20 121 0.0 0.0 0.00 0.00 0.00 93 1015.6
20260906091058 20 123 0.0 0.0 0.00 0.00 0.00 93 1015.6
20260906090059 20 115 0.0 0.0 0.00 0.00 0.00 93 1015.7
20260906085558 20 91 0.0 0.0 0.00 0.00 0.00 93 1015.7
20260906085058 20 87 0.0 0.0 0.00 0.00 0.00 92 1015.7
20260906084601 20 86 0.0 0.0 0.00 0.00 0.00 92 1015.7
20260906084100 20 86 0.0 0.0 0.00 0.00 0.00 92 1015.6
20260906083600 20 83 0.0 0.0 0.00 0.00 0.00 92 1015.5
20260906083059 20 105 0.0 0.0 0.00 0.00 0.00 92 1015.6
20260906082557 20 92 0.0 0.0 0.00 0.00 0.00 92 1015.7
20260906082056 20 89 0.0 0.0 0.00 0.00 0.00 92 1015.6
20260906081558 20 92 0.0 0.0 0.00 0.00 0.00 92 1015.6
20260906081056 20 113 0.0 0.0 0.00 0.00 0.00 92 1015.8
20260906080057 20 113 0.0 0.0 0.00 0.00 0.00 92 1015.8
20260906075557 20 112 0.0 0.0 0.00 0.00 0.00 92 1015.7
20260906075054 20 113 0.0 0.0 0.00 0.00 0.00 92 1015.9
20260906074555 20 113 0.0 0.0 0.00 0.00 0.00 92 1015.9
20260906074053 20 115 0.0 0.0 0.00 0.00 0.00 92 1015.8
20260906073554 20 93 0.0 0.0 0.00 0.00 0.00 92 1016.0
20260906073054 20 112 0.0 0.0 0.00 0.00 0.00 92 1016.0
20260906072554 20 113 0.0 0.0 0.00 0.00 0.00 92 1016.0
20260906072055 20 103 0.0 0.0 0.00 0.00 0.00 92 1015.9
20260906071553 20 105 0.0 0.0 0.00 0.00 0.00 91 1016.0
20260906071053 20 82 0.0 0.0 0.00 0.00 0.00 91 1015.9
20260906070053 21 88 0.0 0.0 0.00 0.00 0.00 91 1016.0
20260906065554 21 88 0.0 0.0 0.00 0.00 0.00 91 1016.0
20260906065053 21 80 0.0 0.0 0.00 0.00 0.00 91 1016.0
20260906064552 21 79 0.0 0.0 0.00 0.00 0.00 91 1016.1
20260906064052 21 80 0.0 0.0 0.00 0.00 0.00 90 1016.1
20260906063551 21 77 0.0 0.0 0.00 0.00 0.00 90 1016.2
20260906063052 21 76 0.0 0.0 0.00 0.00 0.00 90 1016.2
20260906062551 21 76 0.0 0.0 0.00 0.00 0.00 90 1016.2
20260906062051 21 76 0.0 0.0 0.00 0.00 0.00 90 1016.1
20260906061553 21 85 0.0 0.0 0.00 0.00 0.00 90 1016.1
20260906061050 21 89 0.0 0.0 0.00 0.00 0.00 90 1016.2
20260906060049 21 89 0.0 0.0 0.00 0.00 0.00 89 1016.2
20260906055550 21 89 0.0 0.0 0.00 0.00 0.00 89 1016.1
20260906055049 21 91 0.0 0.0 0.00 0.00 0.00 89 1016.1
20260906054602 21 91 0.0 0.0 0.00 0.00 0.00 89 1016.2
20260906054048 21 91 0.0 0.0 0.00 0.00 0.00 89 1016.2
20260906053547 21 91 0.0 0.0 0.00 0.00 0.00 89 1016.1
20260906053048 21 91 0.0 0.0 0.00 0.00 0.00 89 1016.2
20260906052547 21 91 0.0 0.0 0.00 0.00 0.00 89 1016.2
20260906052047 21 91 0.0 0.0 0.00 0.00 0.00 88 1016.2
20260906051547 21 90 0.0 0.0 0.00 0.00 0.00 88 1016.2
20260906051047 21 90 0.0 0.0 0.00 0.00 0.00 88 1016.2
20260906050046 21 91 0.0 0.0 0.00 0.00 0.00 88 1016.1
20260906045546 21 91 0.0 0.0 0.00 0.00 0.00 88 1016.2
20260906045045 21 91 0.0 0.0 0.00 0.00 0.00 88 1016.3
20260906044545 21 91 0.0 0.0 0.00 0.00 0.00 88 1016.3
20260906044047 21 91 0.0 0.0 0.00 0.00 0.00 87 1016.3
20260906043544 21 91 0.0 0.0 0.00 0.00 0.00 87 1016.4
20260906043148 21 91 0.0 0.0 0.00 0.00 0.00 87 1016.4
20260906042545 21 91 0.0 0.0 0.00 0.00 0.00 87 1016.5
20260906042044 22 90 0.0 0.0 0.00 0.00 0.00 87 1016.5
20260906041544 22 90 0.0 0.0 0.00 0.00 0.00 87 1016.5
20260906041042 22 113 0.0 0.0 0.00 0.00 0.00 86 1016.5
20260906040048 22 119 0.0 0.0 0.00 0.00 0.00 86 1016.4
20260906035544 22 119 0.0 0.0 0.00 0.00 0.00 86 1016.5
20260906035044 22 119 0.0 0.0 0.00 0.00 0.00 86 1016.5
20260906034549 22 119 0.0 0.0 0.00 0.00 0.00 86 1016.4
20260906034043 22 119 0.0 0.0 0.00 0.00 0.00 86 1016.5
20260906033543 22 119 0.0 0.0 0.00 0.00 0.00 86 1016.4
20260906033045 22 119 0.0 0.0 0.00 0.00 0.00 86 1016.4
20260906032543 22 119 0.0 0.0 0.00 0.00 0.00 86 1016.4
20260906032043 22 119 0.0 0.0 0.00 0.00 0.00 86 1016.5
20260906031604 22 119 0.0 0.0 0.00 0.00 0.00 85 1016.5
20260906031046 22 119 0.0 0.0 0.00 0.00 0.00 85 1016.5
20260906030041 22 119 0.0 0.0 0.00 0.00 0.00 84 1016.4
20260906025541 22 119 0.0 0.0 0.00 0.00 0.00 84 1016.1
20260906025040 22 119 0.0 0.0 0.00 0.00 0.00 84 1015.8
20260906024555 22 119 0.0 0.0 0.00 0.00 0.00 84 1015.8
20260906024042 22 119 0.0 0.0 0.00 0.00 0.00 83 1015.7
20260906023539 22 119 0.0 0.0 0.00 0.00 0.00 83 1015.8
20260906023044 22 119 0.0 0.0 0.00 0.00 0.00 82 1015.7
20260906022539 22 119 0.0 0.0 0.00 0.00 0.00 82 1015.6
20260906022040 22 119 0.0 0.0 0.00 0.00 0.00 81 1015.5
20260906021539 23 119 0.0 0.0 0.00 0.00 0.00 81 1015.4
20260906021038 23 119 0.0 0.0 0.00 0.00 0.00 81 1015.3
20260906020040 23 119 0.0 0.0 0.00 0.00 0.00 81 1015.1
20260906015539 23 119 0.0 0.0 0.00 0.00 0.00 81 1014.9
20260906015039 23 119 0.0 0.0 0.00 0.00 0.00 81 1014.6
20260906014539 23 119 0.0 0.0 0.00 0.00 0.00 80 1014.5
20260906014043 23 119 0.0 0.0 0.00 0.00 0.00 80 1014.5
20260906013539 23 119 0.0 0.0 0.00 0.00 0.00 80 1014.5
20260906013039 23 119 0.0 0.0 0.00 0.00 0.00 79 1014.4
20260906012538 23 119 0.0 0.0 0.00 0.00 0.00 79 1014.3
20260906012038 23 119 0.0 0.0 0.00 0.00 0.00 79 1014.3
20260906011538 23 119 0.0 0.0 0.00 0.00 0.00 79 1014.3
20260906011043 23 119 0.0 0.0 0.00 0.00 0.00 78 1014.2
20260906010047 23 119 0.0 0.0 0.00 0.00 0.00 77 1014.0
20260906005537 23 119 0.0 0.0 0.00 0.00 0.00 77 1013.9
20260906005038 24 117 0.0 0.0 0.00 0.00 0.00 77 1013.9
20260906004540 24 117 0.0 0.0 0.00 0.00 0.00 76 1013.9
20260906004038 24 117 0.0 0.0 0.00 0.00 0.00 75 1013.9
20260906003537 25 117 0.0 0.0 0.00 0.00 0.00 74 1014.0
20260906003038 25 116 0.0 0.0 0.00 0.00 0.00 74 1014.0
20260906002537 25 115 0.0 0.0 0.00 0.00 0.00 74 1013.9
20260906002039 25 113 0.0 0.0 0.00 0.00 0.00 73 1013.9
20260906001538 25 115 0.0 0.0 0.00 0.00 0.00 73 1014.0
20260906001036 25 113 0.0 0.0 0.00 0.00 0.00 73 1014.0
20260906000041 25 118 0.0 0.0 0.00 0.00 0.00 74 1013.9
20260905235536 26 158 0.0 0.0 0.00 0.00 0.00 74 1013.8
20260905235037 26 117 0.0 0.0 0.00 0.00 0.00 74 1013.6
20260905234540 26 96 0.0 0.0 0.00 0.00 0.00 74 1013.4
20260905234035 26 132 0.0 0.0 0.00 0.00 0.00 74 1013.4
20260905233539 26 101 0.0 0.0 0.00 0.00 0.00 73 1013.5
20260905233036 26 112 0.0 0.0 0.00 0.00 0.00 73 1013.4
20260905232535 26 70 0.0 0.0 0.00 0.00 0.00 72 1013.4
20260905232038 26 106 0.0 0.0 0.00 0.00 0.00 72 1013.3
20260905231535 27 114 0.0 0.0 0.00 0.00 0.00 71 1013.1
20260905231035 27 90 0.0 0.0 0.00 0.00 0.00 71 1013.0
20260905230036 27 114 0.0 0.0 0.00 0.00 0.00 70 1013.2
20260905225537 27 142 0.0 0.0 0.00 0.00 0.00 70 1013.3
20260905225039 27 83 0.0 0.0 0.00 0.00 0.00 69 1013.3
20260905224535 27 130 0.0 0.0 0.00 0.00 0.00 68 1013.1
20260905224036 27 70 0.0 0.0 0.00 0.00 0.00 68 1013.0
20260905223535 27 48 0.0 0.0 0.00 0.00 0.00 68 1013.0
20260905223035 27 128 0.0 0.0 0.00 0.00 0.00 67 1013.2
20260905222534 27 112 0.0 0.0 0.00 0.00 0.00 68 1013.2
20260905222034 27 116 0.0 0.0 0.00 0.00 0.00 67 1013.1
20260905221534 27 94 0.0 0.0 0.00 0.00 0.00 68 1012.9
20260905221034 27 47 0.0 0.0 0.00 0.00 0.00 67 1012.8
20260905220038 27 28 0.0 0.0 0.00 0.00 0.00 68 1012.9
20260905215533 27 105 0.0 0.0 0.00 0.00 0.00 68 1012.9
20260905215033 27 86 0.0 0.0 0.00 0.00 0.00 69 1012.9
20260905214531 27 360 0.0 0.0 0.00 0.00 0.00 69 1013.0
20260905214031 27 34 0.0 0.0 0.00 0.00 0.00 69 1013.0
20260905213530 27 360 0.0 0.0 0.00 0.00 0.00 69 1013.1
20260905213030 27 26 0.0 0.0 0.00 0.00 0.00 69 1013.2
20260905212529 27 51 0.0 0.0 0.00 0.00 0.00 69 1013.2
20260905212027 27 104 0.0 0.0 0.00 0.00 0.00 70 1013.5
20260905211552 27 107 0.0 0.0 0.00 0.00 0.00 70 1013.6
20260905211025 27 84 0.0 0.0 0.00 0.00 0.00 70 1013.7
20260905210027 27 40 0.0 0.0 0.00 0.00 0.00 70 1013.7
20260905205525 27 52 0.0 0.0 0.00 0.00 0.00 70 1013.8
20260905205024 27 51 0.0 0.0 0.00 0.00 0.00 71 1014.0
20260905204524 27 100 0.0 0.0 0.00 0.00 0.00 71 1014.1
20260905204023 27 22 0.0 0.0 0.00 0.00 0.00 70 1014.2
20260905203520 26 94 0.0 0.0 0.00 0.00 0.00 71 1014.3
20260905203018 26 53 0.0 0.0 0.00 0.00 0.00 71 1014.4
20260905202519 26 73 0.0 0.0 0.00 0.00 0.00 71 1014.4
20260905202019 26 106 0.0 0.0 0.00 0.00 0.00 71 1014.6
20260905201525 26 100 0.0 0.0 0.00 0.00 0.00 71 1014.7
20260905201016 26 103 0.0 0.0 0.00 0.00 0.00 71 1014.9
20260905200016 26 101 0.0 0.0 0.00 0.00 0.00 72 1014.9
20260905195515 26 124 0.0 0.0 0.00 0.00 0.00 73 1014.9
20260905195014 26 80 0.0 0.0 0.00 0.00 0.00 74 1014.9
20260905194514 26 115 0.0 0.0 0.00 0.00 0.00 73 1015.0
20260905194014 26 108 0.0 0.0 0.00 0.00 0.00 73 1015.1
20260905193514 26 36 0.0 0.0 0.00 0.00 0.00 73 1014.9
20260905193014 26 46 0.0 0.0 0.00 0.00 0.00 73 1015.1
20260905192513 26 120 0.0 0.0 0.00 0.00 0.00 73 1015.2
20260905192012 26 76 0.0 0.0 0.00 0.00 0.00 74 1015.2
20260905191512 26 71 0.0 0.0 0.00 0.00 0.00 73 1015.1
20260905191012 26 42 0.0 0.0 0.00 0.00 0.00 74 1015.1
20260905190013 26 142 0.0 0.0 0.00 0.00 0.00 74 1015.1
20260905185510 26 105 0.0 0.0 0.00 0.00 0.00 74 1015.2
20260905185011 26 144 0.0 0.0 0.00 0.00 0.00 74 1015.1
20260905184509 26 52 0.0 0.0 0.00 0.00 0.00 75 1015.1
20260905184008 25 117 0.0 0.0 0.00 0.00 0.00 75 1015.0
20260905183508 25 149 0.0 0.0 0.00 0.00 0.00 75 1015.0
20260905183008 25 67 0.0 0.0 0.00 0.00 0.00 76 1015.0
20260905182507 25 80 0.0 0.0 0.00 0.00 0.00 77 1015.0
20260905182006 25 122 0.0 0.0 0.00 0.00 0.00 76 1015.1
20260905181506 25 112 0.0 0.0 0.00 0.00 0.00 77 1015.2
20260905181005 25 118 0.0 0.0 0.00 0.00 0.00 76 1015.3
20260905180005 25 113 0.0 0.0 0.00 0.00 0.00 78 1015.4
20260905175507 25 74 0.0 0.0 0.00 0.00 0.00 79 1015.5
20260905175003 25 148 0.0 0.0 0.00 0.00 0.00 79 1015.4
20260905174503 25 119 0.0 0.0 0.00 0.00 0.00 80 1015.6
20260905174001 25 122 0.0 0.0 0.00 0.00 0.00 82 1015.7
20260905173559 24 174 0.0 0.0 0.00 0.00 0.00 84 1015.7
20260905173104 23 105 0.0 0.0 0.00 0.00 0.00 85 1015.9
20260905172557 23 109 0.0 0.0 0.00 0.00 0.00 86 1016.0
20260905172055 23 117 0.0 0.0 0.00 0.00 0.00 87 1016.1
20260905171553 23 78 0.0 0.0 0.00 0.00 0.00 89 1016.0
20260905171052 23 44 0.0 0.0 0.00 0.00 0.00 89 1016.0
20260905170049 23 116 0.0 0.0 0.00 0.00 0.00 91 1015.9
20260905165548 22 116 0.0 0.0 0.00 0.00 0.00 91 1016.0
20260905165050 22 115 0.0 0.0 0.00 0.00 0.00 92 1016.0
20260905164545 22 71 0.0 0.0 0.00 0.00 0.00 93 1016.0
20260905164044 22 50 0.0 0.0 0.00 0.00 0.00 93 1016.0
20260905163542 22 42 0.0 0.0 0.00 0.00 0.00 93 1016.1
20260905163041 22 40 0.0 0.0 0.00 0.00 0.00 94 1016.2
20260905162541 22 40 0.0 0.0 0.00 0.00 0.00 94 1016.1
20260905162041 22 40 0.0 0.0 0.00 0.00 0.00 94 1016.2